CW8845 Weather Reports


Display with metric or nautical units.
time (UTC)temp
F
wind
direction
speed
MPH
gust
MPH
rain 1hr
in
rain 24hr
in
rain mn
in
humidity
%
barometer
mb
20260509105615 53 78 1.0 4.0 0.00 0.00 0.00 34 1016.7
20260509104623 52 76 1.0 6.0 0.00 0.00 0.00 35 1016.7
20260509103613 54 121 2.0 6.0 0.00 0.00 0.00 32 1016.6
20260509102622 56 5 0.0 2.0 0.00 0.00 0.00 31 1016.5
20260509101615 56 5 1.0 4.0 0.00 0.00 0.00 31 1016.4
20260509100624 56 319 2.0 5.0 0.00 0.00 0.00 32 1016.5
20260509095625 57 331 1.0 4.0 0.00 0.00 0.00 31 1016.3
20260509094634 57 344 1.0 4.0 0.00 0.00 0.00 30 1016.1
20260509093627 59 39 3.0 9.0 0.00 0.00 0.00 28 1016.1
20260509092615 60 315 5.0 11.0 0.00 0.00 0.00 27 1015.8
20260509091620 60 340 5.0 10.0 0.00 0.00 0.00 27 1015.8
20260509090626 60 298 6.0 10.0 0.00 0.00 0.00 27 1015.8
20260509085626 59 311 4.0 11.0 0.00 0.00 0.00 28 1015.9
20260509084616 58 271 2.0 4.0 0.00 0.00 0.00 28 1015.9
20260509083625 58 54 0.0 4.0 0.00 0.00 0.00 27 1015.9
20260509082614 60 327 2.0 3.0 0.00 0.00 0.00 25 1015.9
20260509081627 60 331 1.0 4.0 0.00 0.00 0.00 25 1015.8
20260509080617 60 310 1.0 7.0 0.00 0.00 0.00 25 1015.7
20260509075616 61 253 1.0 10.0 0.00 0.00 0.00 24 1015.5
20260509074624 60 302 2.0 8.0 0.00 0.00 0.00 24 1015.3
20260509073618 61 294 1.0 4.0 0.00 0.00 0.00 24 1015.3
20260509072625 62 295 1.0 5.0 0.00 0.00 0.00 23 1015.3
20260509071614 63 337 2.0 9.0 0.00 0.00 0.00 21 1015.2
20260509070628 63 355 1.0 4.0 0.00 0.00 0.00 22 1015.4
20260509065624 64 31 2.0 5.0 0.00 0.00 0.00 21 1015.6
20260509064631 64 309 2.0 4.0 0.00 0.00 0.00 21 1015.4
20260509063618 64 312 3.0 11.0 0.00 0.00 0.00 20 1015.3
20260509062628 64 303 5.0 10.0 0.00 0.00 0.00 21 1015.4
20260509061615 64 292 7.0 13.0 0.00 0.00 0.00 21 1015.3
20260509060626 65 306 6.0 17.0 0.00 0.00 0.00 20 1015.3
20260509055626 65 279 8.0 15.0 0.00 0.00 0.00 20 1015.1
20260509054614 65 317 8.0 16.0 0.00 0.00 0.00 20 1015.0
20260509053621 64 338 4.0 10.0 0.00 0.00 0.00 22 1014.8
20260509052631 63 123 0.0 4.0 0.00 0.00 0.00 25 1015.1
20260509051621 63 32 1.0 3.0 0.00 0.00 0.00 24 1014.9
20260509050629 63 32 0.0 2.0 0.00 0.00 0.00 25 1014.9
20260509045630 63 32 0.0 4.0 0.00 0.00 0.00 25 1014.7
20260509044638 64 65 3.0 5.0 0.00 0.00 0.00 25 1014.6
20260509043624 63 13 2.0 5.0 0.00 0.00 0.00 26 1014.7
20260509042632 63 360 3.0 8.0 0.00 0.00 0.00 26 1014.6
20260509041620 63 64 1.0 4.0 0.00 0.00 0.00 26 1014.5
20260509040629 64 337 2.0 3.0 0.00 0.00 0.00 25 1014.4
20260509035623 65 337 1.0 8.0 0.00 0.00 0.00 24 1014.4
20260509034632 66 44 3.0 6.0 0.00 0.00 0.00 23 1014.1
20260509033620 66 304 4.0 11.0 0.00 0.00 0.00 23 1013.7
20260509032631 66 321 6.0 13.0 0.00 0.00 0.00 23 1013.6
20260509031618 67 304 7.0 11.0 0.00 0.00 0.00 23 1013.4
20260509030626 67 302 6.0 15.0 0.00 0.00 0.00 23 1013.4
20260509025631 67 300 7.0 14.0 0.00 0.00 0.00 23 1013.2
20260509024635 68 311 4.0 11.0 0.00 0.00 0.00 22 1013.1
20260509023638 68 341 4.0 14.0 0.00 0.00 0.00 22 1013.2
20260509022621 68 319 8.0 13.0 0.00 0.00 0.00 22 1013.1
20260509021626 69 293 5.0 14.0 0.00 0.00 0.00 21 1013.2
20260509020615 70 333 6.0 17.0 0.00 0.00 0.00 21 1013.0
20260509015614 70 298 7.0 18.0 0.00 0.00 0.00 20 1012.9
20260509014641 71 323 10.0 15.0 0.00 0.00 0.00 20 1012.7
20260509013622 72 329 7.0 16.0 0.00 0.00 0.00 20 1012.7
20260509012646 72 13 9.0 14.0 0.00 0.00 0.00 19 1012.6
20260509011632 73 303 7.0 14.0 0.00 0.00 0.00 17 1012.6
20260509010617 73 360 7.0 14.0 0.00 0.00 0.00 17 1012.6
20260509005634 74 345 8.0 15.0 0.00 0.00 0.00 17 1012.5
20260509004621 75 264 6.0 16.0 0.00 0.00 0.00 17 1012.5
20260509003630 75 342 7.0 16.0 0.00 0.00 0.00 16 1012.5
20260509002618 75 304 8.0 14.0 0.00 0.00 0.00 16 1012.4
20260509001644 77 277 8.0 16.0 0.00 0.00 0.00 14 1012.4
20260509000626 77 325 6.0 15.0 0.00 0.00 0.00 15 1012.4
20260508235627 77 340 7.0 16.0 0.00 0.00 0.00 16 1012.3
20260508234617 77 329 5.0 15.0 0.00 0.00 0.00 15 1012.5
20260508233626 78 345 9.0 14.0 0.00 0.00 0.00 16 1012.5
20260508232616 78 340 5.0 14.0 0.00 0.00 0.00 16 1012.5
20260508231621 78 341 4.0 11.0 0.00 0.00 0.00 16 1012.6
20260508230628 78 279 7.0 13.0 0.00 0.00 0.00 16 1012.7
20260508225619 78 317 3.0 10.0 0.00 0.00 0.00 17 1012.7
20260508224627 78 330 4.0 12.0 0.00 0.00 0.00 17 1012.9
20260508223636 78 290 5.0 12.0 0.00 0.00 0.00 17 1012.8
20260508222644 77 306 6.0 13.0 0.00 0.00 0.00 17 1012.8
20260508221616 78 319 8.0 15.0 0.00 0.00 0.00 16 1013.0
20260508220625 78 306 3.0 11.0 0.00 0.00 0.00 17 1013.1
20260508215618 78 300 9.0 18.0 0.00 0.00 0.00 17 1013.2
20260508214645 77 304 5.0 9.0 0.00 0.00 0.00 17 1013.3
20260508213614 78 290 4.0 12.0 0.00 0.00 0.00 17 1013.4
20260508212641 77 305 2.0 9.0 0.00 0.00 0.00 17 1013.5
20260508211626 77 302 2.0 11.0 0.00 0.00 0.00 17 1013.7
20260508210631 77 240 7.0 10.0 0.00 0.00 0.00 17 1013.8
20260508205650 77 244 5.0 10.0 0.00 0.00 0.00 17 1014.0